Location: Cactus School
(34.5700°N, 118.0931°W)
Time: 07:05:24
(UTC-07:00)

Vanguard 2 - Pass Details

Date: 27 April 2024
Orbit: 553 x 2914 km, 32.9° (Epoch: 22 May)

Event Time Altitude Azimuth Distance (km) Brightness Sun altitude
Rises 21:37:46 0° 197° (SSW) 3,845 10.9 -23.2°
Enters shadow 21:37:56 - 196° (SSW) 3,807 10.9 -23.2°
Exits shadow 22:00:28 - 79° (E) 5,940 11.7 -26.7°
Sets 22:00:51 0° 78° (ENE) 6,042 11.8 -26.8°
